This demonstration page uses our WeatherBlox Daily Observations layout. Learn more.

Left ArrowRight Arrow

Hourly Observations for April 6, 2016

Temp ( °F °C ) Dew Point ( °F °C ) Humidity (%) Winds ( mph kmh ) Pressure ( in mb ) Visibility ( mi km ) Precip ( " mm )
12:51 am 00:51 Clear 58 14.4 14 -10 18 18 NW 6 9 30.02 1017 10 16 0.00 0.00
1:51 am 01:51 Clear 60 15.6 15 -9.4 17 17 WNW 10 17 30.01 1016 10 16 0.00 0.00
2:51 am 02:51 Clear 56 13.3 15 -9.4 20 20 NE 5 7 30.02 1017 10 16 0.00 0.00
3:51 am 03:51 Clear 55 12.8 15 -9.4 20 20 ENE 8 13 30.03 1017 10 16 0.00 0.00
4:51 am 04:51 Clear 51 10.6 17 -8.3 26 26 SSW 6 9 30.06 1018 10 16 0.00 0.00
5:51 am 05:51 Clear 48 8.9 14 -10 25 25 NNE 5 7 30.08 1019 10 16 0.00 0.00
6:51 am 06:51 Sunny 54 12.2 17 -8.3 23 23 ESE 3 6 30.11 1020 10 16 0.00 0.00
7:51 am 07:51 Sunny 65 18.3 18 -7.8 16 16 S 5 7 30.12 1020 10 16 0.00 0.00
8:51 am 08:51 Sunny 68 20 19 -7.2 15 15 WSW 6 9 30.12 1020 10 16 0.00 0.00
9:51 am 09:51 Sunny 73 22.8 18 -7.8 12 12 WSW 5 7 30.11 1020 10 16 0.00 0.00
10:51 am 10:51 Sunny 77 25 16 -8.9 10 10 S 6 9 30.10 1019 10 16 0.00 0.00
11:51 am 11:51 Sunny 81 27.2 14 -10 8 8 VRB 6 9 30.08 1019 10 16 0.00 0.00
12:51 pm 12:51 Sunny 83 28.3 13 -10.6 7 7 Calm 30.05 1018 10 16 0.00 0.00
1:51 pm 13:51 Sunny 84 28.9 11 -11.7 6 6 VRB 7 11 30.00 1016 10 16 0.00 0.00
2:51 pm 14:51 Sunny 85 29.4 8 -13.3 5 5 VRB 3 6 29.97 1015 10 16 0.00 0.00
3:51 pm 15:51 Sunny 87 30.6 9 -12.8 5 5 S 7 11 29.95 1014 10 16 0.00 0.00
4:51 pm 16:51 Sunny 86 30 5 -15 4 4 VRB 6 9 29.93 1014 10 16 0.00 0.00
5:51 pm 17:51 Sunny 84 28.9 8 -13.3 5 5 WSW 6 9 29.93 1014 10 16 0.00 0.00
6:51 pm 18:51 Clear 77 25 8 -13.3 7 7 NW 3 6 29.93 1013 10 16 0.00 0.00
7:51 pm 19:51 Clear 70 21.1 7 -13.9 8 8 N 9 15 29.92 1013 10 16 0.00 0.00
8:51 pm 20:51 Clear 70 21.1 8 -13.3 9 9 NNE 7 11 29.93 1014 10 16 0.00 0.00
9:51 pm 21:51 Clear 64 17.8 11 -11.7 12 12 SE 3 6 29.94 1014 10 16 0.00 0.00
10:51 pm 22:51 Clear 62 16.7 9 -12.8 12 12 N 3 6 29.93 1014 10 16 0.00 0.00
11:51 pm 23:51 Clear 60 15.6 11 -11.7 14 14 SE 6 9 29.94 1014 10 16 0.00 0.00

Powered by AerisWeather